Theta_e
315 315 315 314 311 313 316 313 312 311 311 311 310 308 307 307 302 305 306 305 305 308 307 307 306 309 315 309 311 312 310 310 311 310 312 311 312 312 312 312 311 312 311 310 311 311 311
315 315 314 309 307 306 311 310 310 309 309 308 307 306 301 299 301 305 307 306 307 307 307 307 307 311 311 310 311 311 309 311 311 311 311 312 313 313 313 313 312 311 311 310 311 312 311
314 312 310 309 308 305 307 309 307 304 303 305 305 303 298 298 304 307 305 310 307 306 308 308 312 311 307 311 312 309 310 311 311 311 310 312 312 312 312 313 311 311 311 309 309 311 311
311 311 310 310 308 307 309 308 304 304 301 301 299 298 299 297 307 308 303 309 309 307 309 313 314 310 307 310 311 309 310 310 311 312 312 312 312 313 313 311 307 306 305 305 307 310 310
312 311 310 309 306 304 307 304 303 301 299 298 298 298 298 297 307 306 304 308 307 311 312 312 312 309 309 311 309 310 311 311 311 311 311 312 312 310 305 307 304 303 305 308 308 308 309
312 311 310 308 304 302 303 302 300 300 299 298 297 298 300 300 308 304 305 309 308 308 309 309 307 305 306 308 309 310 311 311 311 310 308 309 306 304 304 302 303 306 307 308 309 308 307
312 311 310 308 302 299 300 300 300 300 298 298 297 297 301 304 308 304 303 303 304 302 306 307 307 308 308 309 310 311 311 311 309 307 309 307 308 307 308 309 308 309 310 310 307 307 307
312 311 310 308 301 298 299 299 299 299 298 298 296 296 302 304 309 304 305 307 306 305 308 308 308 309 309 310 309 309 310 310 308 310 307 303 310 309 309 309 310 310 310 304 306 306 308
312 311 311 309 303 298 299 299 299 299 299 298 295 296 303 303 308 307 307 307 308 307 308 309 308 310 310 311 311 311 309 309 310 309 309 306 309 309 309 309 310 308 308 309 310 307 307
314 312 311 310 306 300 299 299 299 299 298 297 294 296 304 300 305 307 307 305 308 308 302 305 310 311 311 311 311 311 310 310 310 311 309 309 309 309 310 310 308 308 308 309 309 309 309
315 313 312 311 308 303 299 299 299 298 298 295 294 297 305 302 306 307 305 306 308 307 304 303 307 310 310 311 310 311 311 310 312 311 305 304 310 310 310 309 309 306 308 309 310 311 308
316 315 313 311 309 306 302 299 299 298 297 294 294 298 307 304 305 307 307 308 308 307 301 306 309 308 307 310 310 311 312 310 310 310 308 307 309 309 308 309 309 308 308 304 307 308 309
315 316 314 312 311 308 305 300 299 298 295 294 295 303 307 307 307 307 308 306 307 307 304 308 308 307 306 308 307 310 309 308 308 305 305 306 310 309 308 308 305 306 304 302 301 303 311
315 315 316 313 312 309 307 302 299 297 294 293 297 306 308 307 307 307 307 301 304 305 308 307 306 306 307 307 306 305 306 305 308 306 301 307 303 309 309 308 305 307 307 299 302 300 304
315 316 316 315 313 311 308 304 299 296 293 294 298 305 308 306 307 308 300 305 307 305 306 306 304 303 303 305 304 303 303 305 308 308 306 306 307 307 308 308 306 308 311 305 304 302 303
314 315 315 316 313 311 310 306 299 295 293 295 300 304 307 304 306 306 302 305 304 305 307 306 304 305 305 304 304 303 303 304 310 309 306 306 307 306 308 307 308 308 307 307 305 305 309
314 315 315 316 315 312 310 307 299 295 293 297 303 299 306 305 308 301 305 304 305 305 307 307 307 306 305 305 305 305 303 305 306 307 306 307 305 305 306 307 307 308 308 308 304 304 306
312 314 314 316 315 314 311 308 299 294 293 297 300 296 304 306 304 299 305 306 306 307 305 306 306 306 307 306 306 305 305 306 303 305 306 305 304 306 306 304 304 308 308 307 306 306 300
312 312 313 315 316 315 313 308 299 294 293 299 299 298 304 303 302 303 303 306 306 305 305 306 306 306 305 307 307 305 305 304 303 304 306 305 302 303 303 304 305 305 305 304 304 303 304
313 313 314 314 316 315 313 309 299 294 293 301 296 297 298 298 298 302 304 304 305 304 305 305 305 305 305 306 304 304 305 305 302 304 309 304 303 304 304 303 304 306 305 304 305 307 306
316 315 314 315 315 315 313 310 300 295 293 301 295 299 299 295 299 302 302 303 305 305 303 302 305 304 304 305 305 304 303 301 301 303 304 304 306 303 304 304 304 305 304 303 303 303 304
318 318 317 316 315 315 314 312 300 295 293 300 298 297 297 296 298 300 300 301 304 304 304 304 305 303 301 303 304 303 299 300 301 301 301 299 304 303 305 303 302 300 299 298 300 301 301
315 316 317 318 316 315 314 309 299 295 294 299 298 298 291 292 296 297 297 300 303 301 302 302 301 298 299 299 298 296 295 296 297 298 298 298 300 301 300 298 298 297 297 299 299 302 302
319 318 317 317 317 317 315 311 299 295 294 299 298 296 290 290 295 297 299 301 302 301 301 300 296 297 296 295 294 293 292 293 293 293 294 296 299 299 298 298 297 296 296 297 303 302 302
320 320 318 318 317 317 315 312 298 295 294 297 299 297 293 292 294 296 296 297 296 296 296 296 296 294 294 295 297 297 295 295 295 294 293 294 296 298 298 298 297 299 299 300 301 302 302
319 319 319 319 317 315 313 307 297 296 295 298 299 297 295 292 292 296 295 295 295 295 295 296 295 295 294 295 297 298 297 296 297 298 292 294 295 295 299 301 300 298 298 297 298 303 297
317 318 319 319 317 311 306 301 297 296 295 296 298 298 296 295 294 296 297 297 295 295 295 295 295 294 293 294 296 297 297 296 297 299 300 295 295 298 298 301 300 299 297 297 303 299 296
305 311 318 318 316 309 302 299 297 297 296 296 297 297 296 296 296 297 297 296 295 295 296 293 293 294 294 296 296 297 298 295 294 295 296 297 299 297 298 299 298 295 295 296 296 295 295
307 311 315 318 310 304 300 298 298 297 296 296 297 296 296 296 295 295 295 295 296 296 294 294 293 293 294 294 291 293 295 289 291 293 290 292 292 292 294 296 292 290 291 292 292 292 291
Wind_Speed
11 12 13 13 13 13 13 15 16 18 19 21 22 23 23 22 22 23 23 24 21 16 11 8 7 6 2 5 2 10 14 14 13 13 17 5 6 3 4 1 2 4 3 5 4 5 4
11 11 11 14 14 15 14 15 17 18 20 21 22 23 25 24 22 22 25 26 16 9 7 8 7 3 2 5 3 9 15 11 15 16 13 10 3 1 5 3 3 2 3 5 3 3 2
9 10 13 15 16 16 15 15 17 19 20 21 23 25 26 24 23 23 28 18 11 6 5 7 7 6 6 2 5 11 13 8 13 10 4 7 5 1 2 2 1 1 4 4 6 3 1
9 12 14 16 17 15 15 16 17 19 21 23 24 26 26 24 22 24 23 10 11 7 6 7 7 5 3 5 5 12 14 5 7 4 3 4 4 3 3 2 4 5 5 4 4 6 3
9 12 14 16 17 16 14 15 17 18 21 24 27 28 27 24 21 25 16 6 9 8 6 5 5 4 1 5 6 12 10 5 6 6 2 2 3 3 6 3 4 7 1 3 8 5 5
9 12 15 17 17 15 14 15 17 19 22 25 27 29 27 23 20 24 7 5 7 9 4 4 6 4 6 5 8 10 10 9 2 5 3 6 5 4 4 6 1 3 3 3 5 4 5
9 12 15 17 17 16 15 16 18 19 22 25 28 29 27 21 17 24 6 2 7 6 13 4 2 1 4 12 4 8 11 6 4 7 5 5 6 2 1 1 2 1 1 4 5 3 6
7 11 14 17 17 15 15 16 18 20 23 25 28 27 25 18 9 21 17 8 2 2 2 1 3 2 2 5 3 7 13 5 6 4 5 6 2 2 1 1 1 1 2 5 6 4 4
6 10 13 16 17 15 15 16 18 20 22 25 27 25 24 13 4 12 25 11 2 2 3 4 1 1 2 4 2 5 5 2 5 4 4 2 1 1 2 2 2 2 3 2 4 7 3
6 8 12 15 17 15 15 16 18 21 23 25 24 23 23 10 0 5 5 11 2 1 4 6 4 1 1 1 2 2 4 2 4 2 1 1 2 1 1 2 3 3 2 1 5 4 3
7 8 11 14 15 16 15 16 18 21 23 25 23 20 18 13 3 4 9 9 1 1 4 3 4 1 1 3 3 1 2 2 1 2 4 3 1 2 2 1 1 5 2 4 1 1 3
10 9 10 12 15 16 16 16 19 21 23 24 21 17 13 7 5 8 10 3 2 5 3 5 3 5 4 1 2 3 1 2 1 2 1 3 1 1 1 2 1 4 1 4 4 2 2
12 11 12 12 14 16 18 17 19 21 23 23 21 11 7 7 5 12 8 1 5 5 2 4 3 4 3 3 4 3 4 5 3 5 5 5 2 2 1 2 4 5 5 3 5 3 4
15 13 13 13 14 16 18 19 18 20 22 23 17 7 5 7 11 12 3 4 5 3 3 3 3 4 0 3 1 4 2 3 2 4 3 3 6 1 2 2 4 1 3 4 4 2 4
17 15 15 14 14 16 18 19 18 20 20 21 15 6 4 10 11 10 4 5 4 4 2 6 5 2 4 2 1 5 3 1 1 2 2 1 5 1 2 1 4 1 0 3 2 0 2
20 18 17 17 16 16 17 19 18 18 19 17 9 7 5 13 11 3 4 2 2 1 2 1 2 3 2 4 5 5 1 2 2 1 1 3 4 1 1 2 1 1 3 2 2 2 4
22 20 19 19 18 18 17 18 17 18 18 11 4 3 5 14 5 4 3 3 2 2 1 2 2 3 0 2 3 3 2 1 2 1 2 1 2 5 2 3 3 2 1 0 2 4 3
24 23 21 21 19 18 19 16 15 17 17 7 3 2 8 12 4 2 2 1 0 2 4 3 1 1 2 1 3 3 2 2 6 2 3 2 3 3 8 3 1 1 2 3 3 5 3
26 25 24 23 21 20 19 16 11 12 13 6 1 2 5 5 3 3 3 3 1 2 2 4 3 2 2 2 4 2 3 3 8 6 3 2 2 4 8 4 2 3 2 3 1 1 5
28 27 27 26 24 22 20 16 10 8 9 5 2 3 4 4 1 4 2 3 4 0 1 1 2 4 3 2 1 4 4 4 8 4 8 2 2 5 5 3 1 6 6 5 4 5 9
31 30 28 29 27 25 22 18 11 5 4 2 3 1 2 2 2 3 2 1 2 4 3 5 3 3 1 2 3 2 3 6 4 8 3 2 3 3 4 6 5 10 11 8 7 13 8
34 35 32 31 31 28 24 20 14 9 5 2 2 2 2 1 1 3 1 3 3 2 2 1 1 2 2 3 3 4 1 0 5 5 4 6 3 3 4 7 7 11 13 12 12 11 10
40 37 36 35 35 33 29 25 18 13 10 3 3 2 3 1 2 4 4 4 3 2 1 2 3 1 3 6 4 7 8 6 5 1 4 4 2 4 3 5 9 8 4 4 3 1 3
45 42 40 40 39 38 34 30 23 19 18 7 6 5 3 3 3 4 3 4 5 3 2 1 3 2 2 2 5 6 4 7 7 8 7 3 1 1 3 4 2 5 9 5 5 9 10
42 41 42 43 41 42 41 35 28 23 21 15 9 5 3 2 1 2 3 3 2 2 1 3 3 2 1 4 3 5 2 2 2 2 4 7 4 3 1 1 8 4 5 5 5 3 8
42 42 44 45 46 45 46 37 30 24 20 17 13 7 3 4 5 3 4 4 4 2 3 1 2 1 4 2 1 2 2 2 1 1 7 7 3 3 2 2 4 1 8 9 6 5 5
36 39 45 45 46 46 45 38 31 27 22 18 10 12 5 3 3 4 3 4 4 3 2 2 3 2 1 2 2 2 3 1 2 2 1 3 2 7 5 4 6 2 7 10 2 3 6
36 38 40 43 46 46 40 35 33 27 23 18 11 12 5 2 1 4 2 4 3 3 4 3 1 0 0 2 2 2 3 1 2 3 2 4 3 4 3 3 7 3 3 4 5 4 9
34 32 35 39 42 42 38 31 27 25 23 18 9 12 6 1 1 2 3 3 2 4 3 3 1 1 3 2 1 2 2 0 3 3 3 3 3 2 5 4 3 4 2 4 7 6 9
Wind_Direction
51 41 33 20 9 14 10 0 0 0 356 352 349 348 347 346 349 347 349 344 340 349 356 3 8 3 84 54 33 353 349 357 14 24 30 15 50 71 77 53 44 59 337 322 304 313 272
40 27 17 12 9 8 5 4 360 358 356 354 352 351 353 351 354 351 349 341 342 358 5 10 9 25 27 74 348 350 351 7 18 24 31 28 35 44 103 46 60 284 268 280 317 317 295
32 23 16 12 6 5 5 1 358 0 1 358 355 356 357 356 355 355 349 353 13 25 33 42 55 45 52 99 0 3 2 26 9 25 42 29 6 41 169 102 276 276 7 3 12 343 337
27 22 17 8 5 6 3 359 1 4 4 2 1 360 359 357 357 357 353 13 35 44 56 57 49 53 74 359 346 2 8 45 15 39 57 35 8 97 34 322 25 40 55 18 318 346 356
21 16 12 5 3 4 4 4 7 7 5 6 4 0 360 356 358 355 357 55 36 57 62 45 50 69 53 330 8 358 1 347 342 358 52 38 83 87 25 52 20 10 20 345 324 40 347
14 12 9 5 3 4 8 10 8 5 3 3 2 360 1 358 360 357 18 120 60 45 20 30 44 39 16 316 320 334 354 345 4 339 10 36 48 70 33 42 224 311 349 314 257 315 1
8 7 7 6 5 7 9 8 5 2 360 359 359 359 1 2 6 4 50 102 20 354 39 95 253 213 309 326 323 352 345 343 5 49 22 2 60 94 149 71 148 151 256 285 270 285 339
357 1 2 4 4 6 6 4 2 360 357 355 355 356 0 360 18 20 50 66 84 313 34 351 280 292 288 330 353 342 359 43 36 37 347 17 70 222 271 189 212 238 299 295 285 300 341
337 350 356 0 2 0 1 359 358 356 353 352 352 353 357 2 19 32 59 55 2 351 74 330 345 346 297 4 348 311 20 2 48 42 13 125 306 344 18 359 358 269 215 229 244 315 250
306 331 346 354 357 356 354 354 353 353 350 351 353 352 355 7 236 26 53 9 41 251 80 316 348 5 23 23 355 322 27 52 35 49 21 303 278 16 327 285 128 293 199 319 301 11 291
279 306 327 340 350 352 349 348 350 350 349 350 354 350 356 23 6 42 331 340 128 104 46 281 308 301 37 79 285 338 10 28 133 319 82 263 335 267 298 237 127 243 316 285 249 202 21
267 286 308 327 338 346 347 343 346 348 348 348 352 347 353 5 34 355 339 335 157 48 270 341 315 354 13 4 301 313 4 57 99 84 324 252 277 208 241 338 269 316 15 44 30 88 8
266 280 295 313 326 336 344 341 343 345 347 347 351 353 7 9 341 340 345 34 38 110 340 327 327 9 351 305 331 349 3 15 20 21 359 344 325 322 98 331 0 45 50 338 355 3 236
258 275 285 300 318 328 339 341 340 343 347 346 353 348 357 6 340 339 348 41 77 260 264 350 330 312 244 21 6 334 359 360 36 74 64 51 331 211 153 173 208 1 123 149 247 247 276
255 263 275 287 305 319 327 335 336 343 346 344 353 346 350 353 341 338 66 51 187 205 299 325 325 356 334 14 38 27 11 253 317 25 155 62 272 265 164 197 128 127 148 168 94 18 27
251 257 267 277 290 304 317 326 332 341 344 343 351 339 337 344 337 352 69 146 210 251 342 355 296 31 309 315 352 40 248 264 193 193 167 211 298 189 321 16 356 164 164 52 30 326 281
248 253 261 268 278 289 306 318 328 337 343 339 3 31 344 345 356 45 104 218 244 290 337 203 250 303 292 312 309 280 261 347 333 315 25 142 147 300 31 211 194 49 312 285 132 155 213
248 251 257 262 270 282 292 309 325 331 343 342 8 7 353 357 47 21 97 198 354 347 3 331 296 262 270 304 267 285 310 5 352 345 327 322 161 273 242 268 273 192 242 145 133 274 218
248 250 253 255 261 270 282 297 313 328 346 339 55 277 5 9 79 2 315 336 3 10 351 336 327 29 1 322 316 286 3 6 15 15 4 336 342 336 334 9 33 66 19 81 2 167 216
246 249 251 252 253 259 270 280 291 315 332 349 33 346 338 48 70 114 10 335 310 53 203 261 312 45 357 331 260 301 336 6 335 343 353 28 249 206 219 270 337 292 306 300 191 255 292
246 249 249 252 249 252 257 264 260 261 300 351 34 291 182 329 350 98 51 329 303 305 358 36 29 50 354 290 303 280 17 336 336 347 354 35 245 222 273 296 288 284 279 266 256 259 250
248 249 247 249 247 249 251 253 238 226 215 176 166 144 10 177 280 96 18 230 211 238 212 203 197 85 347 286 281 282 25 114 264 348 27 355 289 351 267 267 292 290 289 269 261 270 260
245 248 248 247 246 247 246 233 216 214 198 156 160 136 124 268 145 110 215 205 201 180 62 84 132 68 283 257 249 242 218 215 237 312 3 326 306 9 289 345 328 307 256 256 285 354 292
243 246 248 246 247 244 242 232 207 204 205 189 174 146 114 239 173 193 205 188 179 210 236 225 158 140 221 297 282 272 232 234 225 243 188 222 123 46 276 347 318 248 314 194 112 42 17
251 251 249 249 249 243 241 230 202 200 201 199 181 165 151 209 164 254 193 171 102 339 251 239 264 192 263 42 338 318 347 142 84 165 220 200 144 229 214 216 296 335 49 347 326 74 13
252 253 253 252 244 238 233 214 191 194 192 195 183 169 123 119 232 147 152 167 176 203 320 238 348 64 61 67 35 304 274 285 267 71 32 116 116 145 189 247 259 90 317 306 254 196 9
248 252 251 250 242 219 206 194 183 186 183 185 171 169 130 159 228 184 183 168 144 139 173 284 319 45 69 161 191 219 276 292 281 288 149 112 144 220 233 248 272 303 319 319 204 300 304
250 246 250 250 234 207 188 178 180 179 178 170 165 168 136 122 221 213 181 155 126 189 157 178 33 245 99 193 186 175 212 271 323 274 230 194 186 200 200 219 259 343 27 27 272 270 279
250 246 245 248 203 184 175 176 176 173 175 171 130 163 167 168 145 180 209 255 200 197 142 138 156 127 196 96 25 109 206 272 166 265 320 272 192 218 199 246 10 77 209 287 308 318 307